Wind_Speed
30 30 30 30 28 25 24 22 20 18 16 15 14 12 12 12 11 11 11 12 13 13 13 14 16 17 16 15 15 14 14 13 12 10 9 9 10 12 13 13 12 12 11 10 11 11 12 12 12 12 11 10 10 10 10 10 10 9 9 9 9 9 9
30 31 32 32 29 26 24 22 20 16 14 14 13 13 13 13 12 12 12 13 14 14 14 15 16 17 18 17 16 15 15 15 14 12 11 10 11 12 13 14 13 13 12 11 11 11 12 12 12 12 12 11 11 11 10 10 10 9 9 9 9 9 10
29 30 31 31 29 26 23 20 18 16 14 14 14 14 14 14 15 15 15 15 15 15 15 15 16 17 18 18 17 17 17 16 16 15 14 13 12 12 13 14 14 14 14 13 11 11 12 12 13 13 13 12 12 11 10 10 10 9 9 10 10 10 10
23 24 26 28 29 28 24 20 19 19 18 17 17 17 17 18 18 18 17 16 15 15 15 16 17 16 17 17 17 18 18 18 18 18 17 15 13 13 13 14 14 15 14 13 12 12 12 12 13 13 12 13 12 12 11 10 10 9 10 10 10 10 10
16 17 18 22 26 28 27 24 23 23 21 19 18 20 21 21 22 21 20 19 17 17 17 16 16 15 15 15 16 17 18 19 20 19 18 16 14 13 13 13 13 14 13 13 12 12 12 12 12 12 12 12 12 12 11 11 10 10 10 10 11 10 10
12 14 14 15 19 24 27 28 27 26 24 22 21 22 23 23 23 22 22 21 20 19 18 15 13 12 12 13 14 15 17 18 19 19 18 17 15 13 12 11 12 12 13 13 13 12 12 11 11 11 11 12 12 12 12 11 11 11 10 10 11 11 11
12 13 13 14 15 18 24 28 28 26 26 25 23 23 24 24 23 22 22 21 21 20 18 15 14 13 14 15 16 16 16 17 18 19 19 17 16 13 11 11 12 12 13 13 14 14 13 12 11 11 12 12 12 12 12 11 11 11 11 11 11 11 11
15 14 14 14 14 16 20 24 26 26 26 27 25 24 25 26 23 21 20 20 21 21 20 18 17 19 21 20 19 18 17 17 18 19 19 19 18 16 14 13 13 13 13 14 14 14 14 13 12 12 12 12 12 12 12 12 12 12 12 11 11 11 11
18 16 15 16 16 18 20 21 23 23 25 26 25 24 25 25 23 22 20 20 20 21 22 21 22 24 26 24 22 20 19 19 18 18 19 20 20 19 16 15 14 14 14 15 15 15 15 14 13 12 12 12 13 13 13 12 12 12 12 12 12 12 13
19 18 18 17 18 20 20 20 21 21 22 23 24 23 22 21 22 23 23 21 20 22 24 25 26 27 28 27 25 23 22 21 19 17 18 20 21 20 18 15 14 15 15 15 16 16 16 15 15 14 13 13 13 13 13 13 12 12 12 13 13 14 14
20 19 19 17 18 20 20 20 19 19 20 21 21 20 18 16 18 22 24 23 22 21 22 24 28 30 28 29 28 25 23 22 21 20 19 19 19 20 19 18 16 16 16 16 16 17 17 17 16 16 15 14 13 13 13 14 14 13 13 13 14 14 15
23 21 20 19 19 20 21 20 19 19 20 21 20 17 15 15 17 20 23 24 22 20 20 21 25 27 27 28 29 28 25 23 23 23 21 19 19 20 21 21 19 18 17 17 16 16 16 17 17 17 17 15 13 13 13 14 14 14 14 14 14 15 16
27 25 24 23 22 22 23 22 22 22 22 22 21 19 18 16 18 20 20 19 19 19 20 19 18 20 23 26 29 29 27 26 26 25 24 22 20 20 21 22 22 20 18 18 17 16 15 16 17 18 18 17 15 14 13 14 14 15 15 15 15 15 16
28 27 27 27 26 25 25 24 24 24 23 23 22 21 20 18 19 19 17 17 18 19 18 17 15 16 20 25 30 30 29 28 27 26 24 23 22 21 21 22 23 22 20 19 18 17 16 16 16 17 17 17 17 16 15 14 15 15 16 16 16 16 16
24 24 25 27 27 27 27 26 26 25 23 23 22 20 20 20 21 19 17 17 19 18 16 16 16 15 16 20 26 30 29 27 26 26 25 24 24 23 23 23 24 24 23 21 20 19 19 18 18 17 17 18 19 18 17 16 16 16 17 17 17 17 17
23 23 23 25 26 27 27 27 27 26 25 24 23 22 21 21 20 19 18 18 19 18 17 15 15 14 13 14 19 24 27 26 25 26 25 24 25 26 25 26 26 25 25 24 23 21 21 20 20 19 19 19 19 20 19 19 18 18 18 18 18 18 18
25 24 24 25 25 26 27 28 28 28 27 26 26 25 24 22 21 21 21 20 20 21 20 18 17 16 15 15 14 16 21 23 23 23 24 23 24 26 26 27 27 27 27 26 25 23 22 22 22 21 21 20 20 20 21 20 20 19 19 20 20 19 19
26 26 26 27 27 27 28 29 29 29 29 28 27 27 26 24 23 23 23 22 22 22 20 18 17 17 16 15 14 12 14 17 19 21 23 23 24 25 26 27 28 27 27 27 26 25 24 23 23 23 22 22 22 22 22 22 21 20 20 21 21 21 21
28 26 26 27 28 29 30 30 30 31 30 29 29 28 28 27 26 25 24 23 23 23 21 20 19 18 16 15 14 13 12 13 15 18 20 22 23 24 26 27 27 26 26 26 26 26 26 26 26 25 24 24 23 23 23 23 23 22 22 22 23 23 23
30 27 24 24 26 29 30 30 31 32 32 31 30 29 29 28 28 27 25 24 24 23 24 23 21 19 18 17 16 15 15 14 14 14 16 19 20 21 23 25 25 25 25 26 26 27 28 29 29 28 26 25 24 24 24 24 25 25 24 24 25 25 24
34 32 28 25 25 27 29 30 31 32 33 33 32 31 30 29 29 28 25 24 24 23 24 25 23 20 20 19 18 17 17 17 15 13 14 15 16 18 20 23 25 26 26 27 28 29 30 31 31 30 29 27 26 25 25 26 26 26 26 26 26 25 25
34 34 33 30 28 27 28 30 32 33 34 34 34 33 32 31 31 29 26 25 24 23 23 25 24 22 21 21 21 20 19 18 17 16 16 15 15 16 17 19 23 25 27 28 29 29 30 31 32 32 31 29 28 27 27 27 27 27 27 27 26 26 26
32 32 31 30 29 28 28 31 33 34 35 35 35 35 34 33 33 31 29 28 27 26 25 26 26 26 25 26 26 24 23 21 21 20 20 19 19 19 18 18 19 20 21 24 28 28 27 28 30 31 32 31 30 29 29 30 29 29 29 29 29 29 27
32 32 31 30 30 29 29 30 32 33 35 35 36 36 35 35 35 33 31 31 30 29 30 30 29 28 28 28 28 27 25 25 24 24 24 23 22 22 21 20 19 19 19 20 23 26 25 25 25 26 28 30 31 31 31 32 32 31 30 31 32 32 30
37 37 37 36 35 33 31 31 31 32 33 35 36 37 36 36 36 35 34 34 33 32 32 32 31 29 28 28 29 29 29 28 28 27 27 26 26 25 24 22 21 21 22 21 22 22 23 23 23 23 24 27 30 31 31 32 33 33 32 32 33 34 34
42 41 41 40 38 36 34 33 33 33 33 34 35 36 37 37 37 36 36 35 35 35 35 35 35 33 32 32 32 32 32 31 30 29 28 28 28 28 27 25 24 24 24 24 24 23 23 22 22 22 23 25 27 28 30 31 32 33 33 33 33 35 35
40 39 40 41 41 40 38 36 35 35 35 35 35 36 37 38 38 38 37 37 37 37 37 37 37 36 35 35 35 35 34 33 32 31 30 30 30 29 28 28 27 27 26 25 25 26 26 24 23 23 23 24 24 25 27 28 29 30 31 33 34 35 34
42 39 39 41 43 42 41 40 38 38 38 37 38 38 38 39 39 39 39 39 39 39 39 39 38 38 38 38 37 37 37 36 35 34 33 33 32 31 31 30 30 29 29 27 27 27 28 28 27 26 26 26 25 25 26 27 27 27 28 29 32 33 32
45 43 41 42 45 46 45 44 43 42 42 41 41 41 41 41 41 41 41 41 41 41 41 41 41 41 40 40 39 39 38 38 37 37 37 36 35 34 33 32 31 31 30 30 30 29 29 29 29 28 29 29 28 27 28 28 28 28 27 26 28 30 30
45 44 42 42 44 45 45 46 46 46 45 45 45 45 45 45 44 44 43 43 43 43 43 43 43 43 43 42 42 41 40 40 40 40 39 38 37 36 35 34 33 33 32 32 32 31 31 31 30 30 31 31 31 30 30 31 31 31 31 29 29 29 29
43 44 45 46 45 45 45 46 46 46 46 47 47 48 48 48 48 47 46 46 46 46 45 45 45 45 45 44 44 43 43 42 42 42 41 40 39 38 37 36 36 35 35 34 34 33 33 32 32 32 32 33 33 33 33 33 34 34 34 33 33 32 31
41 42 45 48 50 50 49 49 49 48 48 48 48 48 49 49 49 49 48 48 48 48 48 48 48 47 47 47 46 45 45 44 44 43 43 43 42 41 40 39 39 38 37 36 36 35 35 34 34 33 33 34 35 35 35 35 36 36 36 36 36 35 34
46 44 44 46 47 48 48 49 50 50 49 49 49 49 49 50 50 50 50 49 49 49 49 49 49 49 49 48 48 47 47 47 46 46 45 45 44 44 43 42 41 40 40 39 38 37 37 37 36 35 35 35 36 37 37 37 38 38 38 38 37 37 36
52 50 49 48 48 47 47 48 49 50 50 50 50 51 51 51 51 51 51 51 50 50 50 49 49 49 49 49 49 49 48 48 48 47 47 47 46 46 45 45 44 43 42 41 40 40 39 39 39 38 37 37 37 38 38 39 39 39 39 39 38 38 38
52 52 51 51 51 50 49 49 49 50 51 51 51 52 52 52 52 52 51 51 51 51 51 51 50 50 50 50 50 49 49 49 49 48 48 48 47 47 47 46 46 45 45 44 43 42 41 41 41 40 40 39 39 39 39 39 40 40 40 40 40 40 39
49 51 52 52 51 50 50 50 50 51 51 52 52 53 53 53 53 53 53 53 53 52 52 52 52 52 51 51 51 51 50 50 50 49 49 49 48 48 48 47 47 46 46 46 45 44 43 43 43 43 42 41 40 40 40 40 40 41 41 41 41 41 41
47 49 51 51 51 50 50 51 52 52 52 53 53 54 54 54 55 54 54 54 54 54 54 54 53 53 53 53 53 52 52 52 51 51 51 50 50 49 49 48 48 48 47 47 46 46 46 45 44 44 44 43 43 42 41 41 41 42 42 43 43 43 43
45 45 46 47 49 51 52 52 53 54 54 54 54 55 55 55 56 56 56 56 55 55 55 55 55 54 54 54 54 54 54 53 53 53 52 52 52 51 51 50 50 50 49 48 48 48 48 47 47 46 46 46 45 45 44 44 44 44 44 44 45 45 45
Wind_Direction
206 210 206 203 202 200 197 197 196 192 188 191 195 191 185 189 195 190 185 191 194 195 194 195 199 202 203 203 204 204 203 201 202 203 205 205 202 199 197 198 201 202 200 198 199 198 196 191 184 179 176 173 174 175 170 164 161 163 170 177 179 184 189
205 208 207 206 206 205 202 197 198 198 192 191 194 198 195 192 197 197 192 192 195 196 194 194 198 202 205 205 204 204 204 203 202 204 207 211 211 206 202 200 202 204 205 205 205 204 203 199 193 187 182 181 181 179 177 172 169 169 173 179 181 185 192
205 207 208 209 208 207 206 203 202 201 197 194 194 200 204 201 200 202 201 199 199 199 198 197 199 202 206 207 206 205 205 203 202 204 207 211 214 213 208 203 202 206 208 210 209 209 209 207 203 197 190 188 187 186 183 179 176 175 177 182 184 185 192
205 206 209 211 208 204 202 204 206 205 201 197 195 200 207 210 207 206 205 206 206 206 206 205 205 206 209 211 210 209 208 204 203 204 207 209 212 214 214 208 205 207 211 213 214 215 216 214 210 206 200 196 194 192 191 188 186 184 183 185 187 187 191
208 211 212 212 209 202 197 200 205 207 204 200 201 205 209 213 213 210 209 209 212 215 216 216 213 213 218 221 220 218 214 211 207 205 207 208 211 214 216 215 211 210 213 215 218 221 223 223 219 217 213 209 205 202 200 198 196 196 193 191 193 192 193
213 218 218 213 207 199 198 202 204 205 204 203 208 213 216 218 218 217 215 213 216 219 223 226 225 224 228 233 234 230 223 219 214 210 208 208 212 218 221 222 220 216 215 217 220 222 226 229 229 228 227 223 218 214 211 210 207 206 205 203 202 199 197
213 216 216 215 210 201 202 207 208 208 206 205 209 216 220 223 222 222 221 220 222 225 228 231 228 225 227 229 232 234 230 224 218 214 211 208 211 217 221 222 222 219 217 218 220 222 224 228 232 234 235 233 229 225 222 220 217 215 213 213 212 209 205
211 212 212 214 214 209 208 210 212 213 211 210 213 218 222 225 225 225 226 223 223 225 229 231 225 223 224 222 222 227 229 227 221 216 212 208 209 212 215 217 218 217 216 216 218 220 222 224 228 234 237 237 236 234 232 229 227 225 223 220 219 217 215
212 210 212 212 211 212 213 211 212 215 212 210 214 219 223 227 226 227 230 229 224 222 224 226 225 226 227 224 221 223 225 226 223 218 213 210 210 211 212 214 215 216 216 216 215 217 220 222 224 231 237 240 239 237 237 237 235 234 233 230 227 224 222
216 211 213 214 212 213 213 212 215 219 216 210 211 217 224 227 226 228 234 236 233 227 225 224 225 228 230 228 224 223 223 224 224 222 217 212 211 211 213 215 215 216 217 217 215 214 216 218 221 225 232 240 244 243 242 242 241 239 238 236 234 232 228
219 214 214 216 215 215 217 215 215 217 218 217 215 216 222 223 224 228 232 234 236 235 235 235 230 227 229 230 227 224 224 224 225 225 222 216 212 211 213 215 217 216 216 219 219 216 215 216 218 220 224 232 242 248 250 248 246 243 241 240 239 237 234
220 218 217 220 220 219 221 219 214 214 219 223 220 215 216 215 216 224 230 234 238 240 243 244 235 227 228 230 228 225 225 225 225 225 223 219 214 212 213 215 218 218 215 216 220 221 220 220 220 220 219 221 229 240 248 251 250 248 245 244 242 240 239
224 224 224 227 228 226 225 222 218 217 220 223 220 212 212 215 216 223 230 234 238 239 241 242 235 228 229 228 225 224 224 224 225 224 222 219 216 214 215 217 219 221 219 217 218 221 224 225 227 227 224 221 220 226 237 247 251 250 248 246 245 244 242
228 228 227 229 230 231 231 229 228 225 221 223 223 216 215 220 222 223 224 229 235 239 240 237 231 227 229 227 225 223 222 222 224 223 222 222 220 218 219 220 220 222 223 221 219 219 222 226 228 231 232 229 225 222 225 236 245 249 249 248 247 246 246
221 221 221 222 226 229 232 234 236 235 228 224 224 221 219 224 227 225 223 228 234 233 230 229 229 230 232 231 228 224 219 218 222 222 222 224 224 222 222 222 221 221 223 224 223 221 222 225 227 229 232 234 233 228 223 226 235 242 246 248 248 247 246
216 216 216 217 221 225 229 233 235 236 232 226 223 223 223 225 228 229 231 235 238 236 234 234 235 240 240 236 234 227 219 217 219 220 220 223 224 224 224 224 223 222 222 224 226 225 225 227 229 230 232 235 238 238 233 228 230 235 240 244 247 248 248
223 220 218 220 222 223 227 231 233 234 232 228 224 224 225 227 228 229 231 235 239 244 249 248 247 248 239 227 229 229 223 220 219 219 221 222 222 223 225 227 227 226 225 225 226 228 230 232 234 234 234 235 237 241 241 237 234 235 238 241 243 244 246
226 223 221 222 223 224 225 227 230 232 232 229 227 227 228 229 229 228 229 233 237 241 244 243 242 241 232 221 223 229 227 223 221 223 225 223 222 223 227 231 232 230 229 228 229 230 233 236 239 239 238 238 238 238 240 241 239 238 240 242 242 242 242
227 225 223 222 223 225 226 227 228 230 230 229 228 228 228 228 229 229 229 233 236 234 231 231 232 232 232 231 233 234 232 227 225 227 228 226 226 227 230 234 235 234 233 231 230 231 234 237 240 241 241 241 241 240 240 241 241 239 239 241 243 242 242
228 226 225 225 225 226 226 227 228 229 230 230 229 229 230 230 232 231 230 232 235 232 227 227 229 234 238 240 239 237 236 235 233 233 232 230 231 232 234 235 236 236 235 234 233 232 233 235 237 239 241 242 242 243 243 243 242 241 239 240 241 242 241
232 231 231 231 230 229 228 228 228 229 229 230 230 229 230 231 234 234 232 233 236 235 230 226 228 233 238 240 240 239 238 237 237 238 239 237 236 237 238 239 239 240 239 239 238 236 234 235 235 236 239 242 244 245 245 245 245 246 245 244 243 243 243
235 235 237 238 237 234 231 229 228 229 229 230 230 230 230 231 233 233 232 232 234 236 232 227 228 232 237 240 243 244 242 241 240 241 243 243 241 243 244 242 242 242 242 243 243 241 239 239 238 237 237 240 244 248 251 251 250 250 252 252 250 247 244
235 236 238 240 240 237 233 230 229 229 230 230 231 231 231 232 234 234 233 233 233 233 232 231 235 241 244 246 247 245 244 244 245 245 246 247 245 245 247 248 246 245 245 245 244 243 242 241 241 239 238 239 243 248 254 257 256 254 255 257 257 254 250
241 242 243 244 244 242 237 234 231 230 230 231 232 232 232 233 235 235 235 234 234 233 233 235 239 245 246 246 244 243 245 248 249 247 247 248 247 247 249 252 252 251 250 248 246 245 244 242 242 242 241 241 243 246 251 255 257 257 257 259 261 260 257
247 249 251 251 250 247 243 240 236 233 232 232 233 235 235 235 236 236 236 235 235 234 234 234 237 240 241 239 241 246 250 253 252 249 247 248 249 250 251 252 251 251 250 249 248 248 247 246 248 249 247 246 247 249 250 253 255 257 257 258 259 260 261
249 251 252 250 248 245 242 239 237 235 234 233 234 236 237 238 238 238 237 237 236 236 236 236 237 238 237 237 242 248 252 253 253 251 250 250 251 253 254 254 253 251 250 248 247 247 248 249 253 257 257 255 256 256 255 255 256 257 257 257 256 256 259
245 245 245 245 243 241 237 234 232 232 232 233 234 235 237 239 240 240 240 239 239 239 239 240 240 240 239 239 242 246 248 250 251 252 252 252 253 254 255 256 255 254 252 249 247 246 247 248 250 254 256 256 258 261 261 258 256 256 257 256 254 252 252
239 237 236 237 237 236 234 232 230 229 229 231 233 234 235 237 240 241 242 242 242 243 243 244 244 244 243 242 243 244 246 248 249 251 252 253 253 254 255 256 256 256 255 253 250 247 247 248 248 250 252 253 254 257 260 259 257 256 256 256 256 253 250
239 237 234 232 231 232 232 232 231 231 230 230 232 233 234 235 237 239 241 243 243 244 245 246 247 247 246 246 245 246 247 248 249 251 252 252 253 254 255 254 254 254 255 256 253 250 248 248 249 250 252 254 255 257 261 262 261 260 260 259 258 257 254
234 234 231 227 227 229 231 233 234 234 234 234 234 234 234 234 235 237 239 241 242 243 244 245 246 247 248 248 248 248 248 249 250 251 252 252 253 253 253 253 253 253 254 256 256 254 252 251 250 251 251 253 254 256 259 261 261 261 261 260 259 258 257
232 233 233 231 231 232 233 235 236 236 236 236 236 235 235 235 235 236 237 238 240 242 243 243 245 246 247 248 249 249 250 250 251 252 253 254 254 253 253 253 254 254 255 256 256 256 256 255 253 253 253 253 254 255 255 255 256 257 257 257 256 257 257
236 235 235 235 235 235 236 236 237 237 238 238 238 238 237 236 236 236 236 237 238 239 241 242 243 244 246 247 248 249 251 251 252 252 253 254 255 255 255 255 255 255 256 257 257 257 258 257 256 255 254 254 254 255 255 254 254 254 254 253 253 254 255
241 238 236 235 235 234 234 235 236 237 237 237 238 238 238 238 237 236 236 237 237 238 239 241 242 244 245 246 247 248 249 251 252 252 253 254 255 256 257 257 257 257 256 257 257 257 257 257 257 256 254 254 253 253 253 253 252 252 253 253 253 254 254
241 239 237 237 237 238 238 238 238 237 236 236 236 236 237 238 239 238 238 238 238 239 239 240 242 243 244 245 246 247 248 249 250 252 253 254 254 255 256 257 257 257 257 257 256 256 256 256 256 255 254 253 252 253 253 253 253 253 253 253 254 254 255
239 238 238 237 238 239 240 239 238 237 237 236 235 236 237 238 239 240 240 240 240 240 240 240 241 242 243 245 246 246 247 248 249 250 251 252 253 254 255 255 256 257 257 257 257 256 256 256 256 256 255 254 253 252 253 254 255 256 255 255 255 254 254
237 236 236 236 237 237 237 236 236 236 237 237 237 237 237 238 239 240 241 241 242 241 241 241 241 241 242 243 245 245 246 247 248 249 249 250 251 252 253 254 255 255 256 256 257 256 256 256 256 256 256 255 255 254 253 254 255 256 257 257 256 256 255
237 236 236 236 236 236 235 235 235 236 237 238 238 239 239 239 240 241 242 243 243 243 243 243 242 242 242 242 243 244 245 246 246 247 248 248 249 250 250 251 252 253 254 255 256 257 257 257 256 257 257 257 257 256 255 254 254 255 256 257 258 258 258
239 238 237 237 236 236 235 235 236 236 237 237 238 240 240 241 241 242 243 244 244 244 245 245 245 245 245 244 244 245 245 245 246 246 247 248 248 249 249 250 251 251 252 253 255 256 258 258 258 258 258 259 258 258 257 256 256 255 255 256 258 258 259
Height
5904 5905 5907 5908 5909 5910 5912 5916 5919 5921 5922 5923 5923 5924 5926 5927 5928 5929 5930 5932 5933 5933 5934 5935 5936 5937 5938 5940 5941 5942 5943 5944 5945 5946 5947 5947 5948 5949 5949 5950 5951 5951 5952 5953 5954 5954 5955 5955 5956 5956 5957 5957 5958 5959 5959 5959 5959 5960 5960 5960 5961 5961 5962
5901 5902 5903 5906 5909 5911 5913 5916 5919 5921 5922 5922 5923 5923 5925 5926 5927 5928 5929 5930 5931 5932 5933 5933 5934 5935 5937 5938 5939 5941 5942 5943 5944 5945 5946 5946 5947 5948 5948 5949 5949 5950 5951 5952 5953 5953 5954 5955 5955 5956 5956 5957 5958 5958 5959 5959 5959 5959 5960 5960 5960 5961 5962
5898 5900 5902 5906 5910 5913 5915 5917 5919 5920 5921 5921 5922 5923 5923 5925 5926 5927 5928 5929 5930 5931 5932 5932 5933 5934 5935 5937 5938 5940 5941 5942 5943 5944 5944 5945 5946 5947 5947 5948 5948 5949 5950 5951 5952 5953 5954 5955 5955 5955 5956 5956 5957 5958 5959 5959 5959 5960 5960 5960 5960 5961 5962
5899 5901 5903 5905 5908 5912 5915 5916 5918 5918 5919 5919 5921 5921 5922 5922 5923 5925 5926 5927 5929 5930 5931 5931 5932 5933 5935 5937 5938 5939 5940 5941 5941 5942 5943 5944 5945 5946 5946 5947 5948 5948 5949 5950 5951 5952 5953 5954 5955 5956 5956 5956 5957 5958 5958 5959 5960 5960 5960 5960 5960 5961 5961
5899 5901 5902 5904 5906 5910 5913 5914 5914 5915 5916 5918 5919 5920 5920 5920 5921 5922 5924 5925 5927 5929 5930 5931 5932 5934 5936 5937 5938 5939 5939 5940 5940 5941 5942 5943 5944 5945 5946 5947 5948 5949 5949 5950 5951 5952 5953 5954 5955 5956 5957 5957 5957 5958 5958 5959 5959 5960 5960 5960 5960 5961 5961
5898 5899 5900 5901 5903 5907 5909 5909 5910 5911 5914 5916 5917 5918 5918 5919 5920 5921 5922 5923 5925 5927 5929 5932 5934 5936 5937 5937 5938 5938 5939 5939 5940 5941 5942 5943 5945 5946 5947 5948 5949 5949 5950 5950 5951 5952 5953 5954 5955 5956 5957 5957 5958 5958 5959 5959 5959 5960 5960 5960 5960 5961 5961
5897 5898 5898 5899 5902 5904 5906 5906 5908 5910 5912 5914 5915 5916 5918 5919 5919 5920 5922 5923 5924 5927 5929 5932 5934 5935 5935 5935 5935 5936 5937 5938 5939 5940 5941 5943 5945 5946 5947 5948 5948 5948 5949 5950 5950 5951 5952 5953 5954 5955 5956 5957 5958 5959 5959 5959 5959 5960 5960 5961 5961 5961 5961
5896 5897 5897 5898 5900 5902 5903 5905 5906 5909 5911 5913 5914 5914 5915 5917 5919 5920 5922 5923 5925 5928 5929 5931 5933 5931 5930 5930 5932 5934 5936 5937 5937 5938 5939 5940 5942 5944 5945 5946 5946 5947 5947 5948 5949 5949 5950 5951 5953 5954 5955 5955 5956 5958 5958 5959 5959 5960 5960 5960 5961 5961 5961
5895 5896 5897 5898 5899 5901 5901 5903 5905 5907 5909 5911 5912 5912 5913 5914 5918 5920 5920 5921 5924 5926 5927 5929 5930 5927 5926 5928 5931 5932 5934 5935 5936 5937 5937 5938 5939 5941 5943 5944 5945 5946 5946 5946 5947 5948 5948 5950 5951 5952 5953 5954 5955 5956 5957 5958 5959 5959 5960 5960 5960 5961 5960
5893 5895 5895 5896 5898 5899 5900 5902 5904 5906 5908 5909 5909 5910 5911 5914 5917 5919 5918 5918 5921 5922 5924 5926 5926 5925 5925 5926 5929 5930 5932 5934 5935 5936 5936 5936 5937 5939 5941 5943 5944 5944 5945 5945 5945 5946 5947 5948 5949 5950 5951 5953 5954 5955 5956 5957 5958 5958 5959 5959 5960 5960 5960
5892 5893 5894 5894 5896 5897 5898 5900 5902 5904 5906 5908 5908 5908 5911 5914 5917 5917 5915 5915 5918 5919 5921 5922 5922 5923 5923 5925 5926 5928 5930 5932 5933 5934 5934 5935 5936 5937 5939 5941 5942 5942 5943 5943 5944 5944 5945 5946 5947 5948 5949 5951 5953 5954 5955 5956 5957 5957 5958 5958 5959 5959 5960
5891 5892 5892 5893 5894 5896 5897 5898 5900 5902 5904 5906 5906 5907 5910 5912 5914 5913 5912 5913 5916 5918 5918 5919 5919 5920 5921 5923 5924 5925 5927 5929 5931 5931 5932 5933 5934 5936 5937 5939 5940 5940 5941 5942 5943 5944 5944 5945 5945 5946 5947 5948 5950 5952 5954 5955 5955 5956 5957 5957 5957 5958 5958
5888 5890 5891 5891 5893 5894 5895 5897 5898 5900 5902 5903 5904 5906 5908 5909 5910 5909 5910 5913 5915 5915 5916 5916 5917 5918 5918 5919 5920 5922 5924 5926 5928 5929 5930 5931 5932 5934 5935 5936 5938 5939 5940 5941 5941 5942 5943 5944 5945 5945 5946 5946 5948 5949 5951 5952 5953 5954 5955 5955 5956 5956 5957
5885 5887 5888 5889 5890 5891 5893 5895 5896 5898 5899 5901 5902 5904 5906 5907 5907 5908 5910 5911 5911 5912 5913 5914 5914 5915 5915 5915 5916 5917 5919 5922 5924 5926 5928 5929 5930 5932 5933 5934 5936 5937 5938 5939 5940 5941 5941 5942 5943 5944 5945 5945 5946 5947 5948 5950 5951 5952 5953 5954 5954 5955 5955
5883 5884 5886 5887 5887 5888 5890 5892 5894 5895 5897 5899 5900 5901 5903 5904 5905 5907 5909 5909 5909 5910 5911 5912 5912 5913 5914 5913 5913 5914 5916 5918 5921 5923 5925 5926 5928 5929 5930 5932 5933 5934 5935 5937 5938 5939 5939 5940 5941 5942 5943 5944 5945 5945 5945 5947 5948 5950 5951 5952 5952 5953 5954
5880 5882 5883 5884 5885 5886 5887 5889 5890 5892 5894 5897 5898 5899 5901 5902 5903 5905 5906 5907 5908 5908 5909 5910 5911 5912 5913 5913 5914 5914 5915 5916 5918 5920 5922 5923 5925 5926 5927 5929 5930 5931 5932 5934 5936 5937 5937 5938 5939 5940 5941 5941 5943 5944 5944 5944 5945 5947 5948 5950 5951 5951 5952
5877 5879 5880 5882 5883 5884 5885 5886 5887 5889 5891 5894 5896 5898 5899 5900 5902 5903 5904 5905 5906 5906 5907 5908 5909 5910 5911 5912 5913 5914 5915 5915 5916 5917 5918 5920 5922 5924 5925 5926 5928 5928 5930 5931 5933 5934 5935 5936 5937 5938 5939 5939 5940 5941 5942 5942 5943 5944 5945 5947 5948 5949 5950
5873 5875 5877 5878 5880 5881 5882 5883 5885 5886 5889 5891 5893 5895 5897 5899 5900 5901 5902 5903 5904 5905 5906 5907 5908 5909 5910 5911 5912 5912 5913 5913 5914 5915 5916 5917 5919 5922 5923 5924 5926 5927 5928 5929 5931 5932 5933 5934 5935 5936 5937 5938 5938 5939 5940 5940 5940 5941 5942 5943 5945 5946 5947
5870 5872 5873 5875 5876 5878 5879 5880 5882 5883 5885 5887 5890 5891 5893 5896 5898 5899 5900 5901 5902 5903 5905 5907 5908 5909 5910 5910 5911 5910 5910 5911 5912 5913 5914 5915 5917 5919 5921 5922 5923 5925 5927 5928 5929 5930 5930 5931 5933 5934 5935 5935 5936 5936 5937 5938 5938 5938 5939 5940 5941 5942 5944
5868 5869 5871 5872 5874 5875 5877 5878 5879 5880 5882 5884 5886 5888 5890 5892 5894 5896 5897 5899 5899 5900 5902 5904 5905 5906 5907 5907 5908 5909 5909 5910 5910 5911 5912 5913 5915 5917 5919 5919 5920 5922 5924 5926 5927 5927 5927 5928 5929 5931 5932 5933 5934 5934 5934 5935 5935 5935 5935 5936 5937 5939 5941
5865 5867 5868 5869 5871 5873 5874 5876 5876 5877 5879 5881 5883 5885 5887 5889 5890 5891 5894 5895 5896 5897 5899 5900 5901 5902 5903 5904 5905 5907 5908 5908 5909 5909 5910 5912 5913 5915 5916 5917 5918 5919 5921 5923 5924 5924 5924 5925 5926 5928 5929 5930 5931 5931 5931 5932 5933 5933 5933 5934 5935 5936 5938
5863 5864 5865 5866 5868 5870 5871 5873 5873 5874 5876 5877 5880 5882 5884 5885 5886 5888 5891 5892 5893 5894 5896 5897 5898 5900 5901 5902 5903 5904 5905 5906 5907 5908 5909 5910 5912 5913 5914 5916 5917 5917 5918 5919 5920 5921 5921 5922 5924 5925 5926 5927 5928 5928 5928 5929 5930 5931 5932 5932 5933 5933 5934
5860 5861 5862 5864 5865 5866 5868 5869 5870 5871 5873 5874 5876 5878 5880 5882 5884 5886 5888 5890 5891 5892 5894 5895 5896 5897 5898 5899 5901 5902 5903 5904 5905 5907 5908 5909 5910 5911 5912 5913 5914 5915 5916 5916 5917 5918 5919 5920 5921 5922 5923 5924 5925 5925 5926 5926 5927 5928 5929 5931 5931 5931 5931
5856 5857 5859 5861 5862 5863 5864 5865 5866 5868 5870 5871 5872 5874 5876 5878 5880 5882 5885 5887 5888 5890 5891 5892 5893 5894 5895 5896 5897 5899 5901 5902 5903 5904 5905 5906 5907 5908 5909 5911 5912 5913 5914 5914 5914 5914 5916 5918 5919 5920 5921 5921 5921 5921 5922 5923 5924 5925 5926 5927 5929 5930 5930
5852 5853 5855 5856 5857 5859 5860 5862 5863 5865 5866 5868 5869 5870 5872 5874 5876 5878 5880 5882 5884 5886 5888 5889 5890 5891 5892 5893 5894 5895 5897 5899 5900 5901 5903 5903 5904 5905 5907 5908 5909 5911 5912 5912 5912 5912 5913 5914 5915 5916 5917 5917 5917 5918 5919 5920 5921 5922 5922 5923 5924 5927 5928
5846 5848 5849 5851 5853 5854 5856 5858 5859 5861 5863 5864 5865 5866 5867 5869 5871 5873 5876 5878 5880 5882 5884 5885 5887 5888 5890 5891 5891 5892 5893 5895 5896 5898 5899 5900 5901 5902 5903 5905 5906 5908 5909 5910 5910 5910 5911 5912 5913 5913 5914 5914 5915 5915 5916 5917 5918 5920 5919 5919 5920 5923 5925
5840 5842 5844 5846 5848 5850 5851 5853 5855 5856 5858 5860 5862 5863 5864 5865 5866 5868 5870 5873 5875 5877 5879 5881 5883 5884 5886 5887 5888 5889 5890 5891 5892 5893 5895 5896 5897 5898 5899 5901 5902 5903 5905 5906 5907 5908 5908 5910 5910 5911 5911 5912 5912 5913 5913 5914 5916 5917 5916 5915 5916 5918 5921
5833 5836 5839 5841 5843 5844 5846 5847 5849 5851 5853 5855 5857 5859 5860 5861 5862 5863 5865 5868 5870 5872 5874 5876 5877 5879 5881 5882 5884 5885 5886 5888 5889 5890 5891 5892 5893 5894 5895 5896 5897 5899 5900 5901 5902 5903 5905 5906 5907 5907 5908 5908 5909 5909 5909 5910 5911 5912 5912 5912 5913 5915 5917
5826 5830 5833 5835 5837 5838 5840 5841 5843 5845 5847 5849 5851 5853 5855 5857 5858 5859 5861 5863 5865 5867 5869 5870 5872 5873 5875 5877 5879 5880 5882 5883 5884 5885 5886 5887 5888 5890 5891 5892 5893 5894 5895 5896 5897 5899 5900 5901 5903 5903 5903 5904 5905 5905 5905 5905 5906 5907 5907 5908 5909 5911 5912
5820 5823 5826 5829 5830 5832 5834 5836 5837 5839 5841 5843 5845 5847 5849 5851 5853 5855 5857 5858 5860 5862 5863 5865 5866 5868 5869 5871 5873 5875 5876 5878 5879 5880 5881 5882 5883 5885 5886 5887 5889 5890 5891 5892 5893 5894 5895 5897 5898 5899 5899 5899 5900 5901 5901 5902 5902 5903 5903 5904 5905 5907 5907
5816 5818 5820 5822 5824 5826 5828 5830 5831 5833 5835 5836 5838 5840 5842 5845 5847 5850 5852 5853 5854 5856 5857 5859 5861 5862 5864 5865 5867 5869 5870 5872 5873 5874 5875 5877 5878 5880 5881 5883 5884 5885 5886 5888 5888 5889 5890 5892 5893 5894 5895 5895 5896 5896 5897 5898 5898 5898 5899 5900 5901 5901 5902
5811 5812 5813 5814 5816 5819 5821 5823 5825 5827 5829 5830 5832 5834 5836 5838 5840 5843 5845 5847 5849 5850 5851 5853 5855 5856 5858 5859 5861 5863 5864 5865 5867 5868 5870 5871 5873 5874 5876 5877 5879 5880 5881 5882 5883 5884 5885 5886 5888 5889 5890 5891 5892 5892 5893 5893 5893 5893 5894 5895 5895 5896 5897
5804 5806 5806 5808 5810 5811 5814 5816 5818 5820 5822 5824 5826 5828 5829 5831 5833 5836 5838 5840 5842 5844 5846 5847 5849 5850 5852 5854 5855 5857 5858 5859 5861 5862 5864 5865 5867 5868 5870 5871 5873 5874 5876 5877 5878 5879 5880 5881 5883 5884 5886 5887 5888 5888 5888 5889 5889 5889 5889 5890 5890 5891 5891
5796 5798 5800 5802 5804 5805 5807 5809 5812 5814 5816 5817 5819 5821 5822 5824 5827 5829 5831 5834 5836 5838 5840 5841 5843 5844 5846 5847 5849 5851 5852 5854 5855 5857 5858 5859 5861 5862 5864 5865 5867 5868 5870 5871 5873 5874 5875 5876 5877 5878 5880 5881 5882 5883 5883 5883 5883 5883 5884 5884 5885 5886 5886
5788 5791 5794 5796 5798 5799 5801 5803 5805 5807 5809 5810 5812 5814 5815 5817 5819 5822 5824 5827 5829 5831 5833 5835 5837 5838 5839 5841 5843 5844 5846 5848 5849 5851 5852 5854 5855 5856 5858 5859 5861 5862 5863 5865 5866 5868 5869 5870 5871 5872 5873 5875 5876 5877 5878 5878 5877 5878 5878 5879 5879 5880 5880
5781 5784 5786 5789 5791 5793 5795 5796 5798 5799 5801 5803 5805 5807 5808 5810 5812 5814 5817 5820 5822 5824 5826 5828 5830 5831 5833 5834 5836 5837 5839 5841 5843 5845 5846 5847 5849 5850 5851 5853 5854 5855 5857 5858 5859 5861 5862 5864 5865 5866 5867 5868 5869 5870 5872 5872 5872 5872 5872 5873 5873 5873 5874
5775 5777 5780 5782 5785 5786 5788 5789 5790 5792 5793 5795 5797 5799 5802 5804 5806 5808 5810 5812 5815 5817 5819 5820 5822 5824 5826 5828 5829 5831 5833 5835 5836 5838 5839 5841 5842 5844 5845 5846 5847 5849 5850 5851 5852 5853 5855 5856 5858 5859 5860 5861 5863 5864 5865 5866 5866 5866 5866 5866 5867 5867 5868
5769 5772 5774 5776 5778 5778 5780 5781 5783 5784 5786 5788 5790 5792 5795 5797 5799 5801 5803 5805 5807 5809 5811 5813 5815 5816 5818 5820 5822 5824 5826 5827 5829 5831 5832 5833 5835 5836 5838 5839 5840 5842 5843 5845 5846 5847 5847 5848 5850 5851 5853 5854 5855 5856 5858 5858 5859 5860 5860 5860 5860 5861 5862